Location: Mainz-Finthen
(49.9906°N, 8.1713°E)
Time: 20:20:17
(UTC+00:00)

N. Korean satellite - Pass Details

Date: 05 October 2021
Orbit: 450 x 495 km, 97.3° (Epoch: 21 October)

Event Time Altitude Azimuth Distance (km) Brightness Sun altitude
Rises 03:31:31 0° 33° (NNE) 2,563 11.0 -20.2°
Reaches altitude 10° 03:35:04 10° 71° (ENE) 1,685 10.5 -19.7°
Maximum altitude 03:36:07 11° 88° (E) 1,622 10.3 -19.5°
Drops below altitude 10° 03:37:11 10° 105° (ESE) 1,686 10.1 -19.3°
Sets 03:40:44 0° 142° (SE) 2,567 10.5 -18.8°
